User: anonymous   Login
Location: Unspecified
(0.0000°N, 0.0000°E)
Time: 03:28:45
(UTC+00:00)
Language:

Cosmos 2058 - Orbit

View from above orbital plane
View from above orbital plane
View from above satellite
View from above satellite

Ground track
Ground track

The orbit data is extracted from the following two-line orbital elements,

1 20465U 90010A   19141.86457474  .00000141  00000-0  96347-5 0  9998
2 20465  82.4880 291.0678 0017025  84.9571 275.3594 14.97871904590662
Epoch (UTC): 21 May 2019 20:44:59
Eccentricity: 0.0017025
inclination: 82.4880°
perigee height: 561 km
apogee height: 585 km
right ascension of ascending node: 291.0678°
argument of perigee: 84.9571°
revolutions per day: 14.97871904
mean anomaly at epoch: 275.3594°
orbit number at epoch: 59066

The dashed part of the orbit path shows where the satellite is in the earth's shadow,  

DLR